This is the latest recevied weather packets stored in our database for station/object KH6DH-13. If no packets are shown the sender has not sent any weather packets the latest 10 day(s).
| Time | Temp. | Humidity | Pressure | Rain* | Wind** | Luminosity | Snow |
|---|---|---|---|---|---|---|---|
| 1777745479 | 23.33° C | - | - | 0 mm | 1.79 m/s, 83° | - | - |
| 1777744878 | 23.33° C | - | - | 0 mm | 0.45 m/s, 260° | - | - |
| 1777744277 | 22.78° C | - | - | 0 mm | 0.45 m/s, 7° | - | - |
| 1777743676 | 22.78° C | - | - | 0 mm | 1.34 m/s, 142° | - | - |
| 1777743075 | 22.22° C | - | - | 0 mm | 1.34 m/s, 76° | - | - |
| 1777742474 | 22.22° C | - | - | 0 mm | 1.79 m/s, 21° | - | - |
| 1777741873 | 22.78° C | - | - | 0 mm | 0 m/s | - | - |
| 1777741272 | 22.22° C | - | - | 0 mm | 0.45 m/s, 80° | - | - |
| 1777740671 | 22.22° C | - | - | 0 mm | 0.45 m/s, 8° | - | - |
| 1777740070 | 22.22° C | - | - | 0 mm | 0 m/s | - | - |
| 1777739469 | 22.22° C | - | - | 0 mm | 0.89 m/s, 318° | - | - |
| 1777738868 | 22.22° C | - | - | 0 mm | 0.45 m/s, 339° | - | - |
| 1777738267 | 22.22° C | - | - | 0 mm | 1.34 m/s, 79° | - | - |
| 1777737663 | 22.22° C | - | - | 0 mm | 0.45 m/s, 307° | - | - |
| 1777737062 | 22.22° C | - | - | 0 mm | 1.79 m/s, 347° | - | - |
| 1777736461 | 22.22° C | - | - | 0 mm | 2.24 m/s, 73° | - | - |
| 1777735860 | 22.22° C | - | - | 0 mm | 2.68 m/s, 103° | - | - |
| 1777735259 | 22.22° C | - | - | 0 mm | 1.34 m/s, 101° | - | - |
| 1777734658 | 21.67° C | - | - | 0 mm | 2.24 m/s, 359° | - | - |
| 1777734057 | 21.67° C | - | - | 0 mm | 2.24 m/s, 82° | - | - |
| 1777733456 | 22.22° C | - | - | 0 mm | 0 m/s | - | - |
| 1777732855 | 21.67° C | - | - | 0 mm | 0.45 m/s, 158° | - | - |
| 1777732254 | 21.67° C | - | - | 0 mm | 0 m/s | - | - |
| 1777731653 | 21.67° C | - | - | 0 mm | 0 m/s | - | - |
| 1777731052 | 22.22° C | - | - | 0 mm | 0.89 m/s, 7° | - | - |
* Rain latest hour (hover to see other rain measurements)
** Current wind speed in m/s (hover to see current wind gust speed)